Home > Weather > Stjørdal > Past weeks

Flag for Norway Past Weather in Stjørdal, Norway — Yesterday and Last 2 Weeks

Now
56 °F

Overcast.


Feels Like: 56 °F
Forecast: 52 / 62 °F
Wind: 3 mph from East

Location: Trondheim / Vaernes

Current Time: Jun 28, 2016 at 12:17:47 AM

Latest Report: Jun 27, 2016 at 10:00 PM


Visibility: 31 mi

Pressure: 29.66 "Hg

Humidity: 87%

Dew Point: 52 °F

Location of StjørdalLocation

Past Weather in Stjørdal — Graph

°F

Stjørdal Temperature Yesterday

Maximum temperature yesterday: 72 °F (at 12:00 AM)
Minimum temperature yesterday: 56 °F (at 10:00 PM)
Average temperature yesterday: 64 °F

High & Low Weather Summary for the Past Weeks

 TemperatureHumidityPressure
High75 °F (Jun 26, 9:00 PM)96% (Jun 19, 2:00 AM)30.11 "Hg (Jun 19, 2:00 AM)
Low40 °F (Jun 14, 4:00 AM)31% (Jun 20, 3:00 PM)29.57 "Hg (Jun 27, 12:00 PM)
Average56 °F76%29.86 "Hg
* Reported Jun 12 10:00 PM — Jun 27 10:00 PM, Stjørdal, Weather by CustomWeather, © 2016

Note: Actual official high and low records may vary slightly from our data, if they occured in-between our weather recording intervals... More about our weather records

Advertising

Stjørdal Weather History for the Previous 24 Hours

Scroll right to see more
 ConditionsComfort  
Time TempWeatherWind HumidityBarometerVisibility
10:00 PM
Mon, Jun 27
56 °FOvercast.3 mph87%29.66 "Hg31 mi
9:00 PM56 °FPartly sunny.6 mph87%29.67 "Hg28 mi
8:00 PM56 °FLight rain. Overcast.5 mph88%29.66 "Hg19 mi
7:00 PM56 °FRain. Overcast.5 mph89%29.65 "Hg6 mi
6:00 PM59 °FOvercast.10 mph78%29.65 "Hg28 mi
5:00 PM61 °FOvercast.9 mph78%29.63 "Hg31 mi
4:00 PM67 °FPartly sunny.8 mph67%29.61 "Hg19 mi
3:00 PM64 °FSunny.9 mph71%29.60 "Hg19 mi
2:00 PM66 °FMild.8 mph67%29.58 "Hg22 mi
1:00 PM68 °FScattered clouds.9 mph71%29.57 "Hg19 mi
12:00 PM65 °FMild.9 mph75%29.57 "Hg31 mi
11:00 AM71 °FMild.7 mph48%29.57 "Hg28 mi
10:00 AM69 °FSunny.6 mph60%29.58 "Hg22 mi
9:00 AMN/AN/AN/AN/A28 mi
8:00 AM65 °FMild.1 mph73%29.60 "Hg28 mi
7:00 AM62 °FOvercast.6 mph82%29.62 "Hg31 mi
6:00 AM61 °FOvercast.5 mph86%29.62 "Hg31 mi
5:00 AM61 °FRain. Overcast.7 mph85%29.64 "Hg9 mi
3:00 AM65 °FLight rain. Overcast.3 mph66%29.66 "Hg31 mi
2:00 AM70 °FOvercast.3 mph49%29.65 "Hg31 mi
1:00 AM72 °FOvercast.7 mph45%29.65 "Hg31 mi
12:00 AM72 °FOvercast.7 mph48%29.66 "Hg31 mi
Weather by CustomWeather, © 2016

See weather overviewHow to use our weather pages